Location: Unspecified
(0.0000°N, 0.0000°E)
Time: 12:09:25
(UTC+00:00)

SRMSAT - Visible Passes

Search period start: 16 July 2019 00:00
Search period end: 26 July 2019 00:00
Orbit: 848 x 866 km, 20.0° (Epoch: 15 July)

Date Brightness Start Highest point End Pass type
(mag) Time Alt. Az. Time Alt. Az. Time Alt. Az.
16 Jul ? 04:05:56 10° NNW 04:09:48 18° NNE 04:13:41 10° NE visible
16 Jul ? 18:41:32 10° WSW 18:47:34 74° SSE 18:53:33 10° ENE visible
16 Jul ? 20:31:12 10° W 20:36:24 40° NNW 20:36:24 40° NNW visible
17 Jul ? 03:53:50 13° NNW 03:56:56 20° NNE 04:01:06 10° ENE visible
17 Jul ? 05:40:45 10° NW 05:46:25 47° NNE 05:52:05 10° E visible
17 Jul ? 18:28:34 10° WSW 18:34:36 85° SSE 18:40:37 10° ENE visible
17 Jul ? 20:18:25 10° W 20:23:52 36° NNW 20:24:57 33° N visible
18 Jul ? 03:42:15 19° N 03:44:02 22° NNE 03:48:30 10° ENE visible
18 Jul ? 05:27:42 10° NW 05:33:28 54° NNE 05:39:15 10° E visible
18 Jul ? 20:05:39 10° W 20:10:56 32° NNW 20:13:28 23° NNE visible
19 Jul ? 03:30:46 24° N 03:31:09 24° NNE 03:35:52 10° ENE visible
19 Jul ? 05:14:41 10° WNW 05:20:31 62° NNE 05:26:22 10° ESE visible
19 Jul ? 19:52:56 10° WNW 19:58:01 28° NNW 20:01:55 15° NNE visible
20 Jul ? 03:19:20 26° NE 03:19:20 26° NE 03:23:11 10° ENE visible
20 Jul ? 05:01:40 10° WNW 05:07:34 72° NNE 05:13:28 10° ESE visible
20 Jul ? 19:40:14 10° WNW 19:45:05 25° NNW 19:49:58 10° NE visible
21 Jul ? 03:07:56 22° ENE 03:07:56 22° ENE 03:10:29 10° E visible
21 Jul ? 04:49:58 17° WNW 04:54:37 82° NNE 05:00:33 10° ESE visible
21 Jul ? 19:27:34 10° WNW 19:32:12 23° NNW 19:36:49 10° NE visible
21 Jul ? 21:20:03 10° NNW 21:20:31 11° NNW 21:20:31 11° NNW visible
22 Jul ? 02:56:32 16° ENE 02:56:32 16° ENE 02:57:44 10° E visible
22 Jul ? 04:38:34 30° WNW 04:41:40 87° SSW 04:47:36 10° ESE visible
22 Jul ? 19:14:56 10° WNW 19:19:18 21° NNW 19:23:40 10° NNE visible
22 Jul ? 21:07:39 10° NNW 21:08:41 11° NNW 21:08:41 11° NNW visible
23 Jul ? 04:27:09 50° W 04:28:43 77° SSW 04:34:38 10° ESE visible
23 Jul ? 19:02:20 10° WNW 19:06:25 19° NNW 19:10:29 10° NNE visible
23 Jul ? 20:55:17 10° NNW 20:56:32 11° N 20:56:44 11° N visible
24 Jul ? 04:15:41 67° SSW 04:15:46 67° SSW 04:21:39 10° ESE visible
24 Jul ? 18:49:46 10° NW 18:53:32 17° NNW 18:57:19 10° NNE visible
24 Jul ? 20:43:00 10° N 20:43:43 10° N 20:44:27 10° N visible
25 Jul ? 04:04:10 47° SSE 04:04:10 47° SSE 04:08:37 10° ESE visible
25 Jul ? 18:37:14 10° NW 18:40:41 15° NNW 18:44:07 10° NNE visible
